User: anonymous   Login
Location: Montreal
(45.5087°N, 73.5540°W)
Time: 15:07:21
(UTC-05:00)
Language:

Gurwin Techsat 1B - Orbit

View from above orbital plane
View from above orbital plane
View from above satellite
View from above satellite

Ground track
Ground track

The orbit data is extracted from the following two-line orbital elements,

1 25397U 98043D   19047.89267323 -.00000024 +00000-0 +86883-5 0  9996
2 25397 098.6773 349.5924 0002108 056.7948 303.3432 14.23660271070326
Epoch (UTC): 16 February 2019 21:25:26
Eccentricity: 0.0002108
inclination: 98.6773°
perigee height: 811 km
apogee height: 814 km
right ascension of ascending node: 349.5924°
argument of perigee: 56.7948°
revolutions per day: 14.23660271
mean anomaly at epoch: 303.3432°
orbit number at epoch: 7032

The dashed part of the orbit path shows where the satellite is in the earth's shadow,  

DLR